Home > Weather > Illnau-Effretikon > Past weeks

Flag for Switzerland Weather for the Past 2 Weeks in Illnau-Effretikon, Zurich, Switzerland

Now
44 °F

Quite cool.


Feels Like: 41 °F
Forecast: 40 / 47 °F
Wind: 6 mph from Southwest

Location: Zuerich-Fluntern

Current Time: Apr 30, 2016 at 9:54:11 PM

Latest Report: Apr 30, 2016 at 9:00 PM


Visibility: N/A

Pressure: 30.00 "Hg (28.18 "Hg at 514m altitude)

Humidity: 85%

Dew Point: 40 °F

Location of Illnau-EffretikonLocation

Historic Weather in Illnau-Effretikon — Graph

°F

Illnau-Effretikon Temperature Yesterday

Maximum temperature yesterday: 59 °F (at 6:00 PM)
Minimum temperature yesterday: 49 °F (at 10:00 PM)
Average temperature yesterday: 55 °F

High & Low Weather Summary for the Past Weeks

 TemperatureHumidityPressure
High69 °F (Apr 21, 5:00 PM)98% (Apr 18, 11:00 AM)30.33 "Hg (Apr 18, 11:00 AM)
Low31 °F (Apr 28, 7:00 AM)35% (Apr 28, 3:00 PM)29.67 "Hg (Apr 16, 10:00 PM)
Average48 °F71%29.97 "Hg
* Reported Apr 15 8:00 PM — Apr 30 8:00 PM, Illnau-Effretikon, Weather by CustomWeather, © 2016

Note: Actual official high and low records may vary slightly from our data, if they occured in-between our weather recording intervals... More about our weather records

Advertising

Illnau-Effretikon Weather History for the Previous 24 Hours

Scroll right to see more
 ConditionsComfort  
Time TempWeatherWind HumidityBarometerVisibility
8:00 PM
Sat, Apr 30
46 °FOvercast.12 mph84%29.99 "HgN/A
7:40 PM46 °FOvercast.10 mph87%29.98 "HgN/A
7:00 PM47 °FCool.13 mph86%29.96 "HgN/A
6:00 PM53 °FCool.20 mph56%29.88 "HgN/A
5:00 PM62 °FRefreshingly cool.5 mph37%29.82 "HgN/A
4:00 PM63 °FMild.3 mph36%29.83 "HgN/A
3:00 PM63 °FMild.8 mph37%29.85 "HgN/A
2:00 PM62 °FPartly sunny.6 mph39%29.88 "HgN/A
1:00 PM60 °FRefreshingly cool.6 mph40%29.90 "HgN/A
12:00 PM58 °FRefreshingly cool.5 mph43%29.93 "HgN/A
9:00 AM48 °FCool.2 mph64%30.03 "HgN/A
8:00 AM45 °FQuite cool.1 mph80%30.05 "HgN/A
7:00 AM44 °FQuite cool.1 mph79%30.04 "HgN/A
6:00 AM42 °FQuite cool.No wind81%30.05 "HgN/A
5:00 AM42 °FQuite cool.No wind78%30.06 "HgN/A
3:00 AM45 °FQuite cool.3 mph68%30.04 "HgN/A
2:00 AM45 °FCool.1 mph74%30.04 "HgN/A
1:00 AM45 °FCool.No wind75%30.05 "HgN/A
10:00 PM
Fri, Apr 29
49 °FCool.No wind61%30.03 "HgN/A
9:00 PM51 °FCool.1 mph56%30.02 "HgN/A
Weather by CustomWeather, © 2016

See weather overviewHow to use our weather pages